Home > Weather > Fall River > Past weeks

Flag for USA Past Weather in Fall River, Massachusetts, USA — Yesterday and Last 2 Weeks

Now
74 °F

Sunny.


Feels Like: 76 °F
Forecast: 63 / 84 °F
Wind: 5 mph from Southwest

Location: New Bedford Regional Airport

Current Time: Aug 27, 2016 at 8:38:44 PM

Latest Report: Aug 27, 2016 at 7:53 PM


Visibility: 10 mi

Pressure: 30.20 "Hg

Humidity: 69%

Dew Point: 63 °F

Location of Fall RiverLocation

Past Weather in Fall River — Graph

°F

Fall River Temperature Yesterday

Maximum temperature yesterday: 89 °F (at 3:04 PM)
Minimum temperature yesterday: 71 °F (at 11:00 PM)
Average temperature yesterday: 79 °F

High & Low Weather Summary for the Past Weeks

 TemperatureHumidityPressure
High95 °F (Aug 14, 1:53 PM)97% (Aug 20, 1:53 AM)30.28 "Hg (Aug 20, 1:53 AM)
Low51 °F (Aug 23, 4:53 AM)30% (Aug 27, 1:53 PM)29.74 "Hg (Aug 22, 3:53 AM)
Average77 °F70%30.01 "Hg
* Reported Aug 12 6:53 PM — Aug 27 6:53 PM, Fall River, Weather by CustomWeather, © 2016

Note: Actual official high and low records may vary slightly from our data, if they occured in-between our weather recording intervals... More about our weather records

Advertising

Fall River Weather History for the Previous 24 Hours

Scroll right to see more
 ConditionsComfort  
Time TempWeatherWind HumidityBarometerVisibility
6:53 PM
Sat, Aug 27
78 °FSunny.9 mph60%30.18 "Hg10 mi
5:53 PM81 °FSunny.10 mph53%30.16 "Hg10 mi
4:53 PM84 °FSunny.13 mph43%30.16 "Hg10 mi
3:53 PM85 °FPartly sunny.9 mph39%30.14 "Hg10 mi
2:53 PM89 °FSunny.7 mph31%30.14 "Hg10 mi
1:53 PM89 °FSunny.12 mph30%30.15 "Hg10 mi
12:53 PM88 °FSunny.8 mph33%30.15 "Hg10 mi
11:53 AM87 °FSunny.8 mph35%30.16 "Hg10 mi
10:53 AM86 °FSunny.9 mph39%30.16 "Hg10 mi
9:53 AM83 °FSunny.6 mph46%30.16 "Hg10 mi
8:53 AM78 °FSunny.5 mph60%30.15 "Hg10 mi
7:53 AM73 °FSunny.3 mph74%30.14 "Hg10 mi
6:53 AM65 °FClear.No wind91%30.12 "Hg10 mi
5:53 AM65 °FClear.No wind94%30.10 "Hg10 mi
4:53 AM66 °FClear.No wind93%30.08 "Hg10 mi
3:53 AM68 °FClear.No wind90%30.07 "Hg10 mi
2:53 AM71 °FPassing clouds.No wind84%30.06 "Hg10 mi
1:53 AM72 °FClear.3 mph81%30.05 "Hg10 mi
12:53 AM73 °FClear.3 mph81%30.03 "Hg10 mi
11:53 PM
Fri, Aug 26
72 °FClear.No wind91%30.01 "Hg10 mi
11:00 PM71 °FFog.No wind93%30.00 "Hg2 mi
10:53 PM72 °FFog.No wind93%30.00 "Hg6 mi
9:53 PM74 °FClear.No wind91%29.99 "Hg8 mi
8:53 PM76 °FClear.No wind88%29.97 "Hg10 mi
Weather by CustomWeather, © 2016

See weather overviewHow to use our weather pages